When you browse on this site, cookies collect data to enhance your experience and personalize the content and advertising you see.
Visit our Privacy Policy to learn more. By continuing to use the site, you agree to this use of cookies and data.

Tiempo cada hora Mutare

Hoy, 7 Agosto, Viernes

Tiempo Temperatura Precipitaciones Viento Presión Humedad
00:00 +14°C° 0 mm 1 mps 655 mmHg 82%
01:00 +13°C° 0 mm 1 mps 655 mmHg 85%
02:00 +13°C° 0 mm 1 mps 655 mmHg 88%
03:00 +13°C° 0 mm 1 mps 655 mmHg 88%
04:00 +11°C° 0 mm 0 mps 655 mmHg 89%
05:00 +11°C° 0 mm 0 mps 655 mmHg 89%
06:00 +13°C° 0 mm 0 mps 656 mmHg 79%
07:00 +15°C° 0 mm 0 mps 658 mmHg 69%
08:00 +18°C° 0 mm 0 mps 659 mmHg 59%
09:00 +20°C° 0.2 mm 1 mps 659 mmHg 57%
10:00 +20°C° 0.2 mm 2 mps 660 mmHg 56%
11:00 +20°C° 0.2 mm 3 mps 660 mmHg 54%
12:00 +20°C° 0.1 mm 4 mps 660 mmHg 52%
13:00 +21°C° 0.1 mm 4 mps 660 mmHg 50%
14:00 +21°C° 0.1 mm 4 mps 659 mmHg 47%
15:00 +19°C° 0.1 mm 4 mps 659 mmHg 53%
16:00 +18°C° 0.1 mm 4 mps 659 mmHg 59%
17:00 +17°C° 0.1 mm 4 mps 659 mmHg 65%
18:00 +16°C° 0.1 mm 3 mps 659 mmHg 73%
19:00 +13°C° 0.1 mm 3 mps 659 mmHg 81%
20:00 +13°C° 0.1 mm 2 mps 659 mmHg 89%
21:00 +13°C° 0.2 mm 2 mps 659 mmHg 89%
22:00 +13°C° 0.2 mm 2 mps 660 mmHg 90%
23:00 +12°C° 0.2 mm 3 mps 660 mmHg 91%

Mañana, 8 Agosto, Sábado

Tiempo Temperatura Precipitaciones Viento Presión Humedad
00:00 +11°C° 0.1 mm 3 mps 659 mmHg 91%
01:00 +11°C° 0.1 mm 3 mps 659 mmHg 91%
02:00 +10°C° 0.1 mm 3 mps 658 mmHg 91%
03:00 +10°C° 0 mm 2 mps 658 mmHg 92%
04:00 +9°C° 0 mm 2 mps 658 mmHg 92%
05:00 +8°C° 0 mm 2 mps 658 mmHg 93%
06:00 +9°C° 0 mm 2 mps 659 mmHg 86%
07:00 +9°C° 0 mm 2 mps 659 mmHg 79%
08:00 +10°C° 0 mm 2 mps 660 mmHg 73%
09:00 +13°C° 0 mm 2 mps 660 mmHg 63%
10:00 +14°C° 0 mm 3 mps 660 mmHg 54%
11:00 +17°C° 0 mm 3 mps 661 mmHg 45%
12:00 +17°C° 0 mm 3 mps 660 mmHg 43%
13:00 +18°C° 0 mm 3 mps 659 mmHg 42%
14:00 +19°C° 0 mm 3 mps 659 mmHg 40%
15:00 +18°C° 0 mm 3 mps 658 mmHg 43%
16:00 +17°C° 0 mm 3 mps 658 mmHg 46%
17:00 +16°C° 0 mm 3 mps 657 mmHg 49%
18:00 +14°C° 0 mm 2 mps 657 mmHg 56%
19:00 +12°C° 0 mm 2 mps 657 mmHg 62%
20:00 +10°C° 0 mm 1 mps 656 mmHg 69%
21:00 +10°C° 0 mm 1 mps 656 mmHg 74%
22:00 +9°C° 0 mm 1 mps 656 mmHg 78%
23:00 +8°C° 0 mm 1 mps 656 mmHg 82%

Pasado mañana, 9 Agosto, Domingo

Tiempo Temperatura Precipitaciones Viento Presión Humedad
00:00 +8°C° 0 mm 1 mps 655 mmHg 86%
01:00 +8°C° 0 mm 1 mps 655 mmHg 89%
02:00 +7°C° 0 mm 1 mps 654 mmHg 93%
03:00 +6°C° 0 mm 0 mps 654 mmHg 92%
04:00 +6°C° 0 mm 0 mps 654 mmHg 92%
05:00 +5°C° 0 mm 0 mps 654 mmHg 91%
06:00 +8°C° 0 mm 0 mps 654 mmHg 80%
07:00 +10°C° 0 mm 0 mps 655 mmHg 69%
08:00 +12°C° 0 mm 0 mps 656 mmHg 58%
09:00 +15°C° 0 mm 0 mps 657 mmHg 48%
10:00 +19°C° 0 mm 1 mps 657 mmHg 38%
11:00 +22°C° 0 mm 1 mps 657 mmHg 27%
12:00 +23°C° 0 mm 1 mps 657 mmHg 25%
13:00 +23°C° 0 mm 2 mps 656 mmHg 22%
14:00 +24°C° 0 mm 2 mps 655 mmHg 19%
15:00 +23°C° 0 mm 2 mps 655 mmHg 21%
16:00 +22°C° 0 mm 1 mps 654 mmHg 23%
17:00 +21°C° 0 mm 1 mps 654 mmHg 25%
18:00 +18°C° 0 mm 1 mps 654 mmHg 31%
19:00 +15°C° 0 mm 1 mps 654 mmHg 37%
20:00 +13°C° 0 mm 1 mps 653 mmHg 44%
21:00 +12°C° 0 mm 1 mps 653 mmHg 48%
22:00 +11°C° 0 mm 1 mps 653 mmHg 53%
23:00 +10°C° 0 mm 1 mps 653 mmHg 58%

10 Agosto, Lunes

Tiempo Temperatura Precipitaciones Viento Presión Humedad
00:00 +10°C° 0 mm 1 mps 653 mmHg 57%
01:00 +10°C° 0 mm 1 mps 652 mmHg 57%
02:00 +9°C° 0 mm 1 mps 651 mmHg 56%
03:00 +9°C° 0 mm 1 mps 651 mmHg 54%
04:00 +9°C° 0 mm 1 mps 651 mmHg 53%
05:00 +9°C° 0 mm 1 mps 651 mmHg 51%
06:00 +11°C° 0 mm 1 mps 652 mmHg 44%
07:00 +13°C° 0 mm 1 mps 653 mmHg 37%
08:00 +16°C° 0 mm 1 mps 654 mmHg 30%
09:00 +20°C° 0 mm 1 mps 655 mmHg 25%
10:00 +23°C° 0 mm 2 mps 656 mmHg 20%
11:00 +26°C° 0 mm 2 mps 656 mmHg 15%
12:00 +27°C° 0 mm 3 mps 656 mmHg 15%
13:00 +27°C° 0 mm 3 mps 655 mmHg 15%
14:00 +27°C° 0 mm 4 mps 655 mmHg 14%
15:00 +26°C° 0 mm 4 mps 655 mmHg 18%
16:00 +23°C° 0 mm 4 mps 654 mmHg 21%
17:00 +21°C° 0 mm 3 mps 654 mmHg 24%
18:00 +19°C° 0 mm 3 mps 654 mmHg 30%
19:00 +17°C° 0 mm 2 mps 654 mmHg 35%
20:00 +15°C° 0 mm 1 mps 654 mmHg 41%
21:00 +14°C° 0 mm 1 mps 654 mmHg 45%
22:00 +13°C° 0 mm 1 mps 654 mmHg 48%
23:00 +12°C° 0 mm 1 mps 654 mmHg 52%

11 Agosto, Martes

Tiempo Temperatura Precipitaciones Viento Presión Humedad
00:00 +12°C° 0 mm 1 mps 654 mmHg 54%
01:00 +11°C° 0 mm 1 mps 654 mmHg 55%
02:00 +10°C° 0 mm 0 mps 653 mmHg 57%
03:00 +9°C° 0 mm 0 mps 653 mmHg 58%
04:00 +9°C° 0 mm 0 mps 653 mmHg 59%
05:00 +8°C° 0 mm 0 mps 653 mmHg 61%
06:00 +10°C° 0 mm 0 mps 654 mmHg 54%
07:00 +13°C° 0 mm 1 mps 655 mmHg 48%
08:00 +15°C° 0 mm 1 mps 657 mmHg 41%
09:00 +19°C° 0 mm 1 mps 657 mmHg 37%
10:00 +20°C° 0 mm 2 mps 657 mmHg 33%
11:00 +23°C° 0 mm 2 mps 658 mmHg 28%
12:00 +23°C° 0 mm 2 mps 657 mmHg 27%
13:00 +24°C° 0 mm 3 mps 656 mmHg 26%
14:00 +24°C° 0 mm 3 mps 656 mmHg 24%
15:00 +22°C° 0 mm 3 mps 655 mmHg 27%
16:00 +21°C° 0 mm 3 mps 655 mmHg 30%
17:00 +20°C° 0 mm 3 mps 655 mmHg 33%
18:00 +18°C° 0 mm 2 mps 655 mmHg 43%
19:00 +16°C° 0 mm 2 mps 655 mmHg 52%
20:00 +13°C° 0 mm 1 mps 654 mmHg 61%
21:00 +13°C° 0 mm 1 mps 654 mmHg 66%
22:00 +12°C° 0 mm 1 mps 654 mmHg 70%
23:00 +11°C° 0 mm 1 mps 654 mmHg 75%

12 Agosto, Miércoles

Tiempo Temperatura Precipitaciones Viento Presión Humedad
00:00 +11°C° 0 mm 1 mps 654 mmHg 79%
01:00 +10°C° 0 mm 1 mps 653 mmHg 83%
02:00 +10°C° 0 mm 1 mps 653 mmHg 87%
03:00 +9°C° 0 mm 1 mps 653 mmHg 86%
04:00 +8°C° 0 mm 0 mps 653 mmHg 85%
05:00 +8°C° 0 mm 0 mps 653 mmHg 84%
06:00 +10°C° 0 mm 0 mps 654 mmHg 73%
07:00 +12°C° 0 mm 0 mps 655 mmHg 61%
08:00 +15°C° 0 mm 0 mps 656 mmHg 50%
09:00 +20°C° 0 mm 1 mps 657 mmHg 41%
10:00 +22°C° 0 mm 1 mps 657 mmHg 33%
11:00 +25°C° 0 mm 1 mps 658 mmHg 25%
12:00 +26°C° 0 mm 1 mps 658 mmHg 23%
13:00 +26°C° 0 mm 2 mps 657 mmHg 21%
14:00 +27°C° 0 mm 2 mps 656 mmHg 19%
15:00 +25°C° 0 mm 2 mps 656 mmHg 21%
16:00 +24°C° 0 mm 3 mps 656 mmHg 23%
17:00 +22°C° 0 mm 3 mps 655 mmHg 24%
18:00 +19°C° 0 mm 2 mps 655 mmHg 30%
19:00 +17°C° 0 mm 2 mps 655 mmHg 35%
20:00 +15°C° 0 mm 2 mps 655 mmHg 40%
21:00 +14°C° 0 mm 1 mps 655 mmHg 44%
22:00 +13°C° 0 mm 1 mps 655 mmHg 47%
23:00 +12°C° 0 mm 1 mps 655 mmHg 50%
Mostrar más